EST,Max TemperatureF,Mean TemperatureF,Min TemperatureF,Max Dew PointF,MeanDew PointF,Min DewpointF,Max Humidity, Mean Humidity, Min Humidity, Max Sea Level PressureIn, Mean Sea Level PressureIn, Min Sea Level PressureIn, Max VisibilityMiles, Mean VisibilityMiles, Min VisibilityMiles, Max Wind SpeedMPH, Mean Wind SpeedMPH, Max Gust SpeedMPH,PrecipitationIn, CloudCover, Events, WindDirDegrees
2013-1-1,38,36,33,36,35,32,100,95,89,30.11,30.04,29.99,10,4,2,10,3,15,0.21,8,Rain,6
2013-1-2,37,33,28,31,27,21,96,80,64,30.22,30.16,30.08,10,8,4,9,3,12,0.00,6,,358
2013-1-3,40,32,24,24,21,19,88,68,48,30.39,30.29,30.21,10,10,7,9,2,12,0.00,0,,285
2013-1-4,39,29,19,24,21,17,92,72,52,30.45,30.41,30.38,10,10,7,15,3,18,0.00,1,,272
2013-1-5,41,30,19,28,23,17,92,72,49,30.44,30.34,30.24,10,9,6,6,2,,0.00,3,,173
2013-1-6,44,38,32,31,28,22,70,62,53,30.36,30.20,30.09,10,10,10,20,7,28,0.00,8,,260
2013-1-7,47,35,22,25,23,19,92,67,42,30.47,30.38,30.30,10,9,5,10,2,14,0.00,1,,49
2013-1-8,55,39,22,36,29,20,92,69,46,30.41,30.32,30.28,10,9,8,12,2,16,0.00,0,,179
2013-1-9,53,46,39,52,46,34,100,85,70,30.49,30.40,30.28,10,4,0,6,1,8,0.29,8,Fog-Rain,287
2013-1-10,60,53,46,49,46,42,100,86,72,30.48,30.36,30.12,10,9,0,10,4,16,T,5,Fog,73
2013-1-11,64,57,50,59,54,48,100,90,67,30.10,30.04,29.99,10,6,0,12,5,22,0.10,3,Fog-Rain,206
2013-1-12,66,58,51,63,56,50,100,94,73,30.10,30.04,29.94,10,6,0,7,2,,0.06,5,Fog-Rain,170
2013-1-13,66,53,40,59,55,38,93,78,63,30.14,29.96,29.89,10,7,2,23,8,30,1.12,7,Rain,209
2013-1-14,40,36,31,37,31,28,100,91,82,30.38,30.27,30.16,10,8,2,15,7,20,0.21,8,Rain,10
2013-1-15,33,32,31,31,30,30,100,95,89,30.28,30.16,30.00,10,7,2,13,7,17,0.46,8,Rain,41
2013-1-16,36,35,33,36,33,30,100,95,89,30.11,30.04,29.95,10,7,2,10,2,13,0.52,8,Rain,296
2013-1-17,36,31,26,34,28,23,92,84,75,30.38,30.15,30.05,10,9,4,16,6,24,T,5,,13
2013-1-18,42,32,21,27,23,18,92,71,49,30.55,30.48,30.39,10,8,4,10,3,14,0.00,1,,167
2013-1-19,52,39,25,28,25,21,88,62,35,30.38,30.26,30.12,10,10,10,20,7,29,0.00,0,,206
2013-1-20,49,38,27,32,23,15,78,52,26,30.20,30.15,30.11,10,10,10,14,5,17,0.00,0,,267
2013-1-21,36,28,20,19,12,3,88,60,32,30.25,30.17,30.12,10,10,10,25,8,32,0.00,1,,277
2013-1-22,25,19,12,4,0,-3,61,47,32,30.41,30.34,30.24,10,10,10,15,7,20,0.00,3,,297
2013-1-23,39,29,18,18,9,2,68,52,35,30.39,30.28,30.11,10,10,10,15,3,17,0.00,3,,254
2013-1-24,33,27,20,22,5,-6,69,46,23,30.51,30.39,30.13,10,10,10,21,8,26,0.00,1,,13
2013-1-25,32,27,21,31,24,2,100,71,41,30.38,30.13,30.04,10,4,2,13,6,17,0.31,8,Rain,250
2013-1-26,31,27,23,28,26,22,100,93,85,30.43,30.30,30.20,8,7,4,9,3,13,0.00,7,,264
2013-1-27,45,33,20,36,29,17,100,81,62,30.46,30.36,30.26,10,8,4,9,3,14,0.04,4,Rain,150
2013-1-28,56,48,39,50,44,33,100,83,65,30.27,30.21,30.16,10,7,2,15,4,21,0.19,7,Rain,179
2013-1-29,69,56,43,55,50,43,100,80,59,30.17,30.03,29.75,10,7,0,16,6,22,T,5,Fog,179
2013-1-30,67,59,51,57,50,32,100,84,68,29.72,29.56,29.44,10,6,1,33,12,44,1.53,7,Rain-Snow,209
2013-1-31,36,33,29,32,27,21,100,78,56,30.03,29.93,29.68,10,6,1,28,14,36,0.03,8,Snow,256